Regional Weather Roundup
Issued by NWS

Home | Current Version | Previous Version | Text Only | Print | Product List | Glossary On
Versions: 1 2 3 4 5 6 7 8 9 10 11 12 13 14 15 16 17 18 19 20 21 22 23 24 25 26 27 28 29 30 31 32 33 34 35 36 37 38 39 40 41 42 43 44 45 46 47 48 49 50
000
ASUS43 KMKX 031311
RWRWI

WISCONSIN REGIONAL WEATHER ROUNDUP
NATIONAL WEATHER SERVICE MILWAUKEE/SULLIVAN WI
800 AM CDT TUE MAY 03 2016

NOTE: "FAIR" INDICATES FEW OR NO CLOUDS BELOW 12,000 FEET WITH NO
SIGNIFICANT WEATHER AND/OR OBSTRUCTIONS TO VISIBILITY.

WIZ001-002-006>008-014>016-023>028-031400-
NORTHWEST WISCONSIN

CITY           SKY/WX    TMP DP  RH WIND       PRES   REMARKS
SUPERIOR ARPT  PTSUNNY   51  37  57 W8        29.81S
ASHLAND        FAIR      54  35  48 SW9       29.79F
HAYWARD        FAIR      48  37  65 S7        29.85F
SIREN          FAIR      53  35  51 W10       29.88F
CUMBERLAND     FAIR      50  37  62 SW7       29.88F
RICE LAKE      FAIR      51  38  61 W5        29.90F
CHETEK         FAIR      52  39  62 SW3       29.90F
LADYSMITH      FAIR      47  39  74 S3        29.90F
EAU CLAIRE     FAIR      51  39  63 SW9       29.91F
MENOMONIE      FAIR      48  46  90 SW5       29.92S
NEW RICHMOND   FAIR      51  40  66 SW6       29.91F
OSCEOLA        FAIR      52  42  66 SW7       29.93F
$$

WIZ003>005-009-010-017-018-031400-
NORTH CENTRAL WISCONSIN

CITY           SKY/WX    TMP DP  RH WIND       PRES   REMARKS
MANITOWISH WTR FAIR      47  35  63 SW7       29.82F
ARBOR VITAE    FAIR      52  34  51 W9        29.83F
WOODRUFF       FAIR      52  34  51 W9        29.83F
RHINELANDER    FAIR      48  35  60 W9        29.86F
EAGLE RIVER    FAIR      47  33  56 W10       29.83F
LAND O LAKES   FAIR      52  32  46 W8        29.82F
PHILLIPS       FAIR      48  36  61 SW6       29.85F
TOMAHAWK       FAIR      49  34  55 W6        29.87F
MEDFORD        FAIR      49  37  63 W5        29.89F
MERRILL        FAIR      48  36  62 W8        29.88F
$$

WIZ029-030-035-036-043>047-031400-
CENTRAL WISCONSIN

CITY           SKY/WX    TMP DP  RH WIND       PRES   REMARKS
WAUSAU         FAIR      54  37  52 NW10      29.88S
MOSINEE        SUNNY     50  37  62 W8        29.91S
MARSHFIELD     FAIR      51  38  60 W9        29.90F
STEVENS POINT  FAIR      49  36  60 W5        29.91S
WAUPACA        FAIR      55  39  54 W7        29.90F
WAUTOMA        FAIR      54  41  61 W7        29.92
WISC RAPIDS    FAIR      51  38  60 W6        29.93F
CAMP DOUGLAS   MOSUNNY   55  46  71 W12       29.93F
$$

WIZ011>013-019>022-031-037>040-048>050-031400-
NORTHEAST WISCONSIN

CITY           SKY/WX    TMP DP  RH WIND       PRES   REMARKS
ANTIGO         FAIR      49  36  62 W7        29.87F
SHAWANO        FAIR      53  37  56 W6        29.88F
OCONTO         FAIR      53  38  56 W7        29.85F
STURGEON BAY   FAIR      54  37  54 W13       29.88F
GREEN BAY      FAIR      53  39  59 SW6       29.88F
MANITOWOC      FAIR      54  37  52 W12       29.89F
APPLETON       MOSUNNY   50  36  57 W12       29.89S
CLINTONVILLE   FAIR      52  36  54 W9        29.88F
OSHKOSH        FAIR      53  39  59 W8        29.91S
$$

WIZ032>034-041-042-053>061-031400-
SOUTHWEST WISCONSIN

CITY           SKY/WX    TMP DP  RH WIND       PRES   REMARKS
LA CROSSE      FAIR      53  42  66 S6        29.96S
SPARTA         FAIR      45  40  82 CALM      29.95F
VIROQUA        FAIR      50  41  72 W8        29.96F
BOSCOBEL       FAIR      48  42  80 SW7       29.98F
PRAIRIE DU CHI FAIR      52  40  64 CALM      29.99S
PLATTEVILLE    FAIR      48  44  85 W6        29.99S
$$

WIZ056-057-062-063-064-067-068-031400-
SOUTH CENTRAL WISCONSIN

CITY           SKY/WX    TMP DP  RH WIND       PRES   REMARKS
REEDSBURG      FAIR      49  42  78 CALM      29.95S
BARABOO/DELLS  FAIR      51  38  62 W8        29.95S
LONE ROCK      FAIR      47  41  80 W7        29.98S
MINERAL POINT  FAIR      52  43  71 W9        29.97F
MADISON        FAIR      51  40  65 NW7       29.95S
MIDDLETON      FAIR      52  41  68 W9        29.96F
WATERTOWN      FAIR      49  40  71 W3        29.94S
MONROE         FAIR      50  37  62 W12       29.97S
JANESVILLE     MOSUNNY   46  43  87 CALM      29.96S
$$

WIZ051-052-058>065-066-070>072-031400-
SOUTHEAST WISCONSIN

CITY           SKY/WX    TMP DP  RH WIND       PRES   REMARKS
MILWAUKEE      FAIR      53  36  52 W6        29.94F
WAUKESHA       SUNNY     50  37  62 CALM      29.96S
MILWAUKEE/TIMM SUNNY     50  34  53 SW8       29.95S
RACINE         FAIR      53  33  46 W7        29.96F
BURLINGTON     FAIR      49  38  66 SW6       29.95S
KENOSHA        FAIR      50  38  63 SW5       29.95F
FOND DU LAC    FAIR      52  39  61 W7        29.92F
SHEBOYGAN      FAIR      55  40  56 W7        29.91F
WEST BEND      FAIR      52  36  54 W7        29.93S
JUNEAU         FAIR      46  39  75 SW5       29.95S
$$

LSZ147-162-031400-
LAKE SUPERIOR

STATION/POSITION TIME  TEMP    WIND        PRES    WAVE
                       AIR SEA DIR/SP/G            HT/PER
                 (UTC) (F)     (DEG/KT/KT) (MB)    (FT/S)
W MID LAKE BUOY  1250   41 37  230/ 12/ 14 1006.7F   1/ 3
DEVILS ISLAND    1200   48     230/ 21/ 23 1008.0F
SAXON HARBOR     1240   57     220/  9/ 25 1008.1F
$$

LMZ867-665-643>646-031400-
LAKE MICHIGAN

STATION/POSITION TIME  TEMP    WIND        PRES    WAVE
                       AIR SEA DIR/SP/G            HT/PER
                 (UTC) (F)     (DEG/KT/KT) (MB)    (FT/S)
CHAMBERS ISLAND  1200   48     200/  6/ 11 1011.2S
N MID LAKE BUOY  1250   41 38  200/ 12/ 12 1010.5F   1/ 3
NORTHPORT PIER   1200   51     270/  1/  7 1010.8S
ALGOMA LAKESHORE 1215          270/  7/  8   N/A
KEWAUNEE LAKESHO 1200   49     290/  5/  8 1011.3F
SHEBOYGAN LAKESH 1300   54     260/ 10/ 13 1013.0F
PORT WASHINGTON  1200   51     270/  5/ 10 1014.2F
S MID LAKE BUOY  1250   42 41  170/  4/  6 1014.5F   0
KENOSHA   LAKESH 1300   53     260/  9/ 14 1014.2F
$$

TC  - TEMPERATURE IN CELSIUS
VSB - VISIBILITY IN STATUTE MILES
WCI - WIND CHILL INDEX
HX  - HEAT INDEX




USA.gov is the U.S. government's official web portal to all federal, state and local government web resources and services.